| time (UTC) | temp C | wind direction | speed KPH | gust KPH | rain 1hr cm | rain 24hr cm | rain mn cm | humidity % | barometer mb |
| 20260510043926 | 11 | 292 | 0.0 | 6.4 | 0.05 | 2.21 | 0.00 | 92 | 1012.5 |
| 20260510043426 | 11 | 292 | 1.6 | 1.6 | 0.05 | 2.21 | 0.00 | 92 | 1012.6 |
| 20260510042925 | 11 | 292 | 0.0 | 4.8 | 0.05 | 2.21 | 0.00 | 92 | 1012.6 |
| 20260510042425 | 11 | 292 | 0.0 | 4.8 | 0.10 | 2.21 | 0.00 | 92 | 1012.5 |
| 20260510041925 | 11 | 315 | 0.0 | 3.2 | 0.10 | 2.21 | 0.00 | 92 | 1012.5 |
| 20260510041425 | 11 | 315 | 0.0 | 6.4 | 0.10 | 2.21 | 0.00 | 92 | 1012.5 |
| 20260510040924 | 11 | 315 | 6.4 | 9.7 | 0.10 | 2.21 | 0.00 | 92 | 1012.4 |
| 20260510040424 | 11 | 292 | 8.0 | 8.0 | 0.05 | 2.16 | 0.00 | 92 | 1012.3 |
| 20260510035924 | 11 | 292 | 4.8 | 4.8 | 0.10 | 2.16 | 0.00 | 92 | 1012.3 |
| 20260510035423 | 11 | 292 | 3.2 | 6.4 | 0.10 | 2.16 | 0.00 | 92 | 1012.2 |
| 20260510034923 | 11 | 292 | 3.2 | 6.4 | 0.10 | 2.16 | 0.00 | 92 | 1012.1 |
| 20260510034423 | 11 | 292 | 3.2 | 4.8 | 0.10 | 2.16 | 0.00 | 92 | 1012.2 |
| 20260510033922 | 11 | 292 | 3.2 | 4.8 | 0.10 | 2.16 | 0.00 | 92 | 1012.1 |
| 20260510033422 | 11 | 292 | 3.2 | 3.2 | 0.10 | 2.16 | 0.00 | 92 | 1012.1 |
| 20260510032922 | 11 | 292 | 1.6 | 1.6 | 0.10 | 2.16 | 0.00 | 92 | 1012.0 |
| 20260510032422 | 11 | 292 | 0.0 | 3.2 | 0.05 | 2.11 | 0.00 | 92 | 1012.0 |
| 20260510031921 | 11 | 292 | 0.0 | 1.6 | 0.05 | 2.11 | 0.00 | 92 | 1011.9 |
| 20260510031421 | 11 | 292 | 0.0 | 0.0 | 0.05 | 2.11 | 0.00 | 92 | 1011.8 |
| 20260510030921 | 11 | 292 | 0.0 | 0.0 | 0.10 | 2.11 | 0.00 | 92 | 1011.8 |
| 20260510030420 | 11 | 292 | 0.0 | 0.0 | 0.05 | 2.06 | 0.00 | 92 | 1011.8 |
| 20260510025920 | 11 | 292 | 0.0 | 1.6 | 0.05 | 2.06 | 0.00 | 92 | 1011.8 |
| 20260510025420 | 11 | 292 | 1.6 | 3.2 | 0.10 | 2.06 | 0.00 | 92 | 1011.8 |
| 20260510024920 | 11 | 292 | 1.6 | 3.2 | 0.10 | 2.06 | 0.00 | 92 | 1011.8 |
| 20260510024419 | 11 | 292 | 1.6 | 3.2 | 0.10 | 2.06 | 0.00 | 92 | 1011.8 |
| 20260510023919 | 11 | 292 | 0.0 | 4.8 | 0.10 | 2.06 | 0.00 | 92 | 1011.8 |
| 20260510023419 | 11 | 292 | 0.0 | 4.8 | 0.15 | 2.06 | 0.00 | 92 | 1011.7 |
| 20260510022918 | 11 | 292 | 1.6 | 4.8 | 0.15 | 2.06 | 0.00 | 92 | 1011.7 |
| 20260510022418 | 11 | 292 | 4.8 | 8.0 | 0.20 | 2.06 | 0.00 | 92 | 1011.6 |
| 20260510021918 | 11 | 202 | 0.0 | 8.0 | 0.20 | 2.06 | 0.00 | 92 | 1011.6 |
| 20260510021417 | 11 | 292 | 1.6 | 3.2 | 0.20 | 2.06 | 0.00 | 92 | 1011.8 |
| 20260510020917 | 11 | 292 | 1.6 | 8.0 | 0.20 | 2.01 | 0.00 | 92 | 1011.7 |
| 20260510020417 | 11 | 292 | 1.6 | 9.7 | 0.20 | 2.01 | 0.00 | 92 | 1011.8 |
| 20260510015917 | 11 | 292 | 4.8 | 8.0 | 0.20 | 2.01 | 0.00 | 92 | 1011.8 |
| 20260510015416 | 11 | 292 | 8.0 | 9.7 | 0.15 | 1.96 | 0.00 | 92 | 1011.9 |
| 20260510014916 | 11 | 292 | 6.4 | 8.0 | 0.20 | 1.96 | 0.00 | 92 | 1011.9 |
| 20260510014416 | 11 | 292 | 3.2 | 9.7 | 0.20 | 1.96 | 0.00 | 92 | 1011.8 |
| 20260510013915 | 11 | 292 | 9.7 | 12.9 | 0.15 | 1.91 | 0.00 | 92 | 1011.8 |
| 20260510013415 | 11 | 292 | 4.8 | 11.3 | 0.20 | 1.91 | 0.00 | 92 | 1011.8 |
| 20260510012915 | 11 | 292 | 6.4 | 11.3 | 0.20 | 1.91 | 0.00 | 92 | 1011.8 |
| 20260510012415 | 11 | 292 | 1.6 | 11.3 | 0.15 | 1.85 | 0.00 | 92 | 1011.8 |
| 20260510011914 | 11 | 292 | 4.8 | 9.7 | 0.15 | 1.85 | 0.00 | 92 | 1011.8 |
| 20260510011414 | 11 | 292 | 1.6 | 8.0 | 0.10 | 1.80 | 0.00 | 92 | 1011.7 |
| 20260510010914 | 11 | 292 | 1.6 | 9.7 | 0.10 | 1.80 | 0.00 | 92 | 1011.7 |
| 20260510010413 | 11 | 292 | 4.8 | 11.3 | 0.15 | 1.80 | 0.00 | 92 | 1011.7 |
| 20260510005913 | 11 | 292 | 3.2 | 11.3 | 0.15 | 1.80 | 0.00 | 92 | 1011.7 |
| 20260510005413 | 11 | 292 | 4.8 | 14.5 | 0.15 | 1.80 | 0.00 | 92 | 1011.7 |
| 20260510004912 | 11 | 247 | 14.5 | 16.1 | 0.15 | 1.75 | 0.00 | 92 | 1011.6 |
| 20260510004412 | 11 | 292 | 4.8 | 12.9 | 0.15 | 1.75 | 0.00 | 92 | 1011.6 |
| 20260510003912 | 11 | 315 | 3.2 | 12.9 | 0.10 | 1.70 | 0.00 | 92 | 1011.6 |
| 20260510003412 | 11 | 315 | 6.4 | 9.7 | 0.10 | 1.70 | 0.00 | 92 | 1011.5 |
| 20260510002911 | 11 | 247 | 6.4 | 12.9 | 0.10 | 1.70 | 0.00 | 92 | 1011.5 |
| 20260510002411 | 11 | 292 | 3.2 | 16.1 | 0.10 | 1.70 | 0.00 | 92 | 1011.5 |
| 20260510001911 | 11 | 315 | 4.8 | 12.9 | 0.10 | 1.70 | 0.00 | 92 | 1011.6 |
| 20260510001410 | 11 | 247 | 6.4 | 11.3 | 0.10 | 1.70 | 0.00 | 92 | 1011.5 |
| 20260510000910 | 11 | 315 | 4.8 | 12.9 | 0.10 | 1.65 | 0.00 | 92 | 1011.5 |
| 20260510000411 | 11 | 225 | 6.4 | 8.0 | 0.10 | 1.65 | 0.00 | 92 | 1011.4 |
| 20260509235910 | 11 | 247 | 8.0 | 8.0 | 0.10 | 1.65 | 0.00 | 92 | 1011.4 |
| 20260509235409 | 11 | 292 | 1.6 | 6.4 | 0.10 | 1.65 | 0.00 | 92 | 1011.5 |
| 20260509234909 | 11 | 292 | 1.6 | 6.4 | 0.05 | 1.60 | 0.00 | 92 | 1011.6 |
| 20260509234409 | 11 | 292 | 0.0 | 14.5 | 0.05 | 1.60 | 0.00 | 92 | 1011.6 |
| 20260509233908 | 11 | 315 | 14.5 | 14.5 | 0.05 | 1.60 | 0.00 | 92 | 1011.6 |
| 20260509233408 | 11 | 315 | 3.2 | 11.3 | 0.05 | 1.60 | 0.00 | 92 | 1011.7 |
| 20260509232908 | 11 | 292 | 4.8 | 9.7 | 0.10 | 1.60 | 0.00 | 92 | 1011.7 |
| 20260509232408 | 11 | 292 | 3.2 | 6.4 | 0.15 | 1.60 | 0.00 | 92 | 1011.7 |
| 20260509231907 | 11 | 292 | 1.6 | 6.4 | 0.20 | 1.60 | 0.00 | 92 | 1011.7 |
| 20260509231407 | 11 | 247 | 4.8 | 8.0 | 0.20 | 1.55 | 0.00 | 92 | 1011.7 |
| 20260509230907 | 11 | 315 | 3.2 | 6.4 | 0.25 | 1.55 | 0.00 | 92 | 1011.8 |
| 20260509230406 | 11 | 292 | 0.0 | 4.8 | 0.25 | 1.55 | 0.00 | 92 | 1011.9 |
| 20260509225906 | 11 | 315 | 0.0 | 3.2 | 0.25 | 1.55 | 0.00 | 92 | 1011.9 |
| 20260509225406 | 11 | 315 | 0.0 | 3.2 | 0.30 | 1.55 | 0.00 | 92 | 1011.9 |
| 20260509224905 | 11 | 315 | 3.2 | 4.8 | 0.30 | 1.55 | 0.00 | 92 | 1011.9 |
| 20260509224405 | 11 | 315 | 0.0 | 4.8 | 0.30 | 1.55 | 0.00 | 92 | 1011.9 |
| 20260509223905 | 11 | 315 | 1.6 | 6.4 | 0.30 | 1.55 | 0.00 | 92 | 1011.9 |
| 20260509223405 | 11 | 315 | 1.6 | 4.8 | 0.25 | 1.50 | 0.00 | 92 | 1012.0 |
| 20260509222904 | 11 | 315 | 3.2 | 6.4 | 0.30 | 1.50 | 0.00 | 92 | 1012.0 |
| 20260509222404 | 11 | 292 | 4.8 | 9.7 | 0.20 | 1.40 | 0.00 | 92 | 1012.0 |
| 20260509221904 | 11 | 292 | 3.2 | 9.7 | 0.20 | 1.40 | 0.00 | 92 | 1011.9 |
| 20260509221403 | 11 | 315 | 3.2 | 4.8 | 0.10 | 1.27 | 0.00 | 92 | 1011.9 |
| 20260509220903 | 11 | 315 | 4.8 | 4.8 | 0.15 | 1.27 | 0.00 | 91 | 1011.9 |
| 20260509220403 | 11 | 315 | 1.6 | 6.4 | 0.15 | 1.27 | 0.00 | 91 | 1011.9 |
| 20260509215903 | 11 | 225 | 0.0 | 8.0 | 0.15 | 1.22 | 0.00 | 91 | 1012.0 |
| 20260509215402 | 11 | 202 | 6.4 | 11.3 | 0.15 | 1.22 | 0.00 | 91 | 1012.0 |
| 20260509214902 | 11 | 292 | 0.0 | 3.2 | 0.15 | 1.22 | 0.00 | 91 | 1012.0 |
| 20260509214402 | 11 | 292 | 1.6 | 3.2 | 0.15 | 1.22 | 0.00 | 91 | 1012.0 |
| 20260509213901 | 11 | 292 | 3.2 | 3.2 | 0.15 | 1.22 | 0.00 | 91 | 1011.9 |
| 20260509213401 | 11 | 292 | 3.2 | 4.8 | 0.10 | 1.17 | 0.00 | 91 | 1012.0 |
| 20260509212901 | 11 | 292 | 3.2 | 3.2 | 0.15 | 1.22 | 0.00 | 91 | 1012.0 |
| 20260509212400 | 11 | 292 | 0.0 | 4.8 | 0.15 | 1.22 | 0.00 | 91 | 1012.1 |
| 20260509211900 | 11 | 292 | 0.0 | 6.4 | 0.20 | 1.22 | 0.00 | 91 | 1012.1 |
| 20260509211400 | 11 | 292 | 0.0 | 4.8 | 0.20 | 1.22 | 0.00 | 91 | 1012.0 |
| 20260509210900 | 11 | 292 | 4.8 | 4.8 | 0.15 | 1.17 | 0.00 | 91 | 1012.1 |
| 20260509210359 | 11 | 292 | 3.2 | 8.0 | 0.15 | 1.17 | 0.00 | 91 | 1012.1 |
| 20260509205859 | 11 | 292 | 1.6 | 6.4 | 0.10 | 1.12 | 0.00 | 91 | 1012.0 |
| 20260509205359 | 11 | 292 | 4.8 | 9.7 | 0.15 | 1.12 | 0.00 | 91 | 1012.1 |
| 20260509204858 | 11 | 292 | 0.0 | 9.7 | 0.15 | 1.12 | 0.00 | 91 | 1012.0 |
| 20260509204358 | 11 | 292 | 9.7 | 9.7 | 0.20 | 1.12 | 0.00 | 91 | 1012.1 |
| 20260509203858 | 11 | 292 | 0.0 | 6.4 | 0.20 | 1.12 | 0.00 | 91 | 1012.0 |
| 20260509203358 | 11 | 292 | 1.6 | 6.4 | 0.20 | 1.07 | 0.00 | 91 | 1012.0 |
| 20260509202857 | 12 | 292 | 3.2 | 12.9 | 0.20 | 1.12 | 0.00 | 91 | 1012.0 |
| 20260509202357 | 12 | 292 | 1.6 | 8.0 | 0.20 | 1.12 | 0.00 | 91 | 1012.1 |
| 20260509201857 | 12 | 292 | 4.8 | 16.1 | 0.15 | 1.07 | 0.00 | 91 | 1012.0 |
| 20260509201356 | 12 | 247 | 1.6 | 11.3 | 0.15 | 1.07 | 0.00 | 91 | 1011.9 |
| 20260509200856 | 12 | 225 | 4.8 | 8.0 | 0.15 | 1.07 | 0.00 | 91 | 1011.9 |
| 20260509200356 | 12 | 292 | 0.0 | 6.4 | 0.20 | 1.07 | 0.00 | 91 | 1011.9 |
| 20260509195856 | 12 | 292 | 1.6 | 6.4 | 0.15 | 1.02 | 0.00 | 91 | 1011.9 |
| 20260509195355 | 12 | 315 | 0.0 | 4.8 | 0.20 | 1.02 | 0.00 | 91 | 1011.9 |
| 20260509194855 | 12 | 315 | 0.0 | 3.2 | 0.20 | 1.02 | 0.00 | 91 | 1011.9 |
| 20260509194355 | 12 | 315 | 0.0 | 6.4 | 0.15 | 0.97 | 0.00 | 91 | 1011.9 |
| 20260509193854 | 12 | 0 | 3.2 | 6.4 | 0.15 | 0.97 | 0.00 | 91 | 1011.9 |
| 20260509193354 | 12 | 22 | 3.2 | 9.7 | 0.10 | 0.91 | 0.00 | 90 | 1011.8 |
| 20260509192854 | 12 | 0 | 3.2 | 4.8 | 0.10 | 0.97 | 0.00 | 90 | 1011.8 |
| 20260509192353 | 12 | 0 | 1.6 | 4.8 | 0.10 | 0.97 | 0.00 | 100 | 1011.7 |
| 20260509191853 | 12 | 0 | 1.6 | 4.8 | 0.10 | 0.97 | 0.00 | 91 | 1011.6 |
| 20260509191353 | 13 | 337 | 1.6 | 4.8 | 0.10 | 0.97 | 0.00 | 91 | 1011.7 |
| 20260509190853 | 13 | 0 | 1.6 | 4.8 | 0.10 | 0.97 | 0.00 | 91 | 1011.7 |
| 20260509190352 | 13 | 0 | 1.6 | 6.4 | 0.05 | 0.91 | 0.00 | 91 | 1011.6 |
| 20260509185852 | 13 | 337 | 6.4 | 6.4 | 0.00 | 0.86 | 0.00 | 90 | 1011.7 |
| 20260509185352 | 13 | 337 | 3.2 | 4.8 | 0.00 | 0.86 | 0.00 | 90 | 1011.6 |
| 20260509184851 | 13 | 0 | 1.6 | 8.0 | 0.00 | 0.86 | 0.00 | 90 | 1011.4 |
| 20260509184351 | 13 | 337 | 3.2 | 6.4 | 0.00 | 0.86 | 0.00 | 90 | 1011.5 |
| 20260509183851 | 13 | 292 | 6.4 | 6.4 | 0.00 | 0.86 | 0.00 | 90 | 1011.4 |
| 20260509183351 | 13 | 292 | 3.2 | 3.2 | 0.00 | 0.86 | 0.00 | 90 | 1011.4 |
| 20260509182850 | 13 | 292 | 1.6 | 4.8 | 0.00 | 0.91 | 0.00 | 90 | 1011.3 |
| 20260509182350 | 13 | 292 | 3.2 | 3.2 | 0.00 | 0.91 | 0.00 | 90 | 1011.3 |
| 20260509181850 | 13 | 292 | 1.6 | 6.4 | 0.00 | 0.91 | 0.00 | 90 | 1011.3 |
| 20260509181349 | 13 | 292 | 3.2 | 4.8 | 0.00 | 0.91 | 0.00 | 90 | 1011.3 |
| 20260509180849 | 13 | 292 | 0.0 | 6.4 | 0.00 | 0.91 | 0.00 | 90 | 1011.1 |
| 20260509180349 | 13 | 315 | 4.8 | 4.8 | 0.00 | 0.91 | 0.00 | 90 | 1011.1 |
| 20260509175848 | 13 | 292 | 1.6 | 3.2 | 0.00 | 0.91 | 0.00 | 90 | 1011.0 |
| 20260509175348 | 13 | 292 | 3.2 | 3.2 | 0.00 | 0.91 | 0.00 | 90 | 1011.0 |
| 20260509174848 | 13 | 292 | 3.2 | 3.2 | 0.00 | 0.91 | 0.00 | 90 | 1010.9 |
| 20260509174348 | 13 | 292 | 3.2 | 3.2 | 0.00 | 0.91 | 0.00 | 90 | 1010.8 |
| 20260509173847 | 13 | 315 | 3.2 | 3.2 | 0.00 | 0.91 | 0.00 | 90 | 1010.9 |
| 20260509173347 | 13 | 315 | 1.6 | 3.2 | 0.00 | 0.91 | 0.00 | 90 | 1010.8 |
| 20260509172847 | 13 | 315 | 1.6 | 4.8 | 0.00 | 0.91 | 0.00 | 90 | 1010.8 |
| 20260509172346 | 13 | 315 | 1.6 | 3.2 | 0.00 | 0.91 | 0.00 | 89 | 1010.8 |
| 20260509171846 | 13 | 315 | 0.0 | 6.4 | 0.00 | 0.91 | 0.00 | 89 | 1010.8 |
| 20260509171346 | 13 | 337 | 0.0 | 3.2 | 0.00 | 0.91 | 0.00 | 89 | 1010.7 |
| 20260509170846 | 13 | 337 | 0.0 | 3.2 | 0.00 | 0.91 | 0.00 | 89 | 1010.7 |
| 20260509170345 | 13 | 337 | 0.0 | 1.6 | 0.00 | 0.91 | 0.00 | 89 | 1010.6 |
| 20260509165845 | 13 | 337 | 0.0 | 1.6 | 0.00 | 0.91 | 0.00 | 89 | 1010.5 |
| 20260509165345 | 13 | 337 | 1.6 | 4.8 | 0.00 | 0.91 | 0.00 | 89 | 1010.5 |
| 20260509164844 | 13 | 337 | 1.6 | 4.8 | 0.00 | 0.91 | 0.00 | 89 | 1010.5 |
| 20260509164344 | 13 | 0 | 1.6 | 3.2 | 0.00 | 0.91 | 0.00 | 89 | 1010.4 |
| 20260509163844 | 13 | 22 | 0.0 | 3.2 | 0.00 | 0.91 | 0.00 | 89 | 1010.4 |
| 20260509163343 | 14 | 22 | 1.6 | 1.6 | 0.00 | 0.91 | 0.00 | 89 | 1010.3 |
| 20260509162843 | 14 | 22 | 1.6 | 1.6 | 0.00 | 0.91 | 0.00 | 89 | 1010.2 |
| 20260509162343 | 13 | 22 | 0.0 | 1.6 | 0.00 | 0.91 | 0.00 | 89 | 1010.2 |
| 20260509161843 | 13 | 22 | 1.6 | 1.6 | 0.00 | 0.91 | 0.00 | 89 | 1010.2 |
| 20260509161342 | 13 | 45 | 0.0 | 1.6 | 0.00 | 0.91 | 0.00 | 89 | 1010.2 |
| 20260509160842 | 13 | 22 | 1.6 | 3.2 | 0.00 | 0.91 | 0.00 | 89 | 1010.2 |
| 20260509160342 | 13 | 22 | 0.0 | 3.2 | 0.00 | 0.91 | 0.00 | 89 | 1010.2 |
| 20260509155841 | 14 | 22 | 3.2 | 3.2 | 0.00 | 0.91 | 0.00 | 89 | 1010.2 |
| 20260509155341 | 14 | 45 | 0.0 | 1.6 | 0.00 | 0.91 | 0.00 | 89 | 1010.1 |
| 20260509154841 | 14 | 45 | 0.0 | 3.2 | 0.00 | 0.91 | 0.00 | 89 | 1010.1 |
| 20260509154341 | 14 | 45 | 1.6 | 3.2 | 0.00 | 0.91 | 0.00 | 89 | 1010.0 |
| 20260509153840 | 14 | 45 | 3.2 | 3.2 | 0.00 | 0.91 | 0.00 | 89 | 1009.9 |
| 20260509153340 | 14 | 45 | 0.0 | 0.0 | 0.00 | 0.91 | 0.00 | 89 | 1010.0 |
| 20260509152840 | 13 | 45 | 0.0 | 0.0 | 0.00 | 0.91 | 0.00 | 89 | 1010.0 |
| 20260509152339 | 13 | 45 | 0.0 | 4.8 | 0.00 | 0.91 | 0.00 | 89 | 1010.0 |
| 20260509151839 | 14 | 67 | 1.6 | 8.0 | 0.00 | 0.91 | 0.00 | 88 | 1010.0 |
| 20260509151339 | 14 | 67 | 1.6 | 4.8 | 0.05 | 0.91 | 0.00 | 88 | 1010.0 |
| 20260509150838 | 14 | 67 | 1.6 | 6.4 | 0.05 | 0.91 | 0.00 | 88 | 1010.0 |
| 20260509150338 | 14 | 22 | 3.2 | 6.4 | 0.05 | 0.91 | 0.00 | 88 | 1010.0 |
| 20260509145838 | 14 | 67 | 4.8 | 6.4 | 0.05 | 0.91 | 0.00 | 88 | 1009.8 |
| 20260509145338 | 14 | 337 | 3.2 | 6.4 | 0.05 | 0.91 | 0.00 | 88 | 1009.8 |
| 20260509144837 | 14 | 45 | 3.2 | 8.0 | 0.05 | 0.91 | 0.00 | 88 | 1009.9 |
| 20260509144337 | 14 | 67 | 1.6 | 9.7 | 0.05 | 0.91 | 0.00 | 89 | 1009.9 |
| 20260509143837 | 14 | 22 | 6.4 | 6.4 | 0.05 | 0.91 | 0.00 | 89 | 1009.9 |
| 20260509143336 | 14 | 0 | 1.6 | 3.2 | 0.05 | 0.91 | 0.00 | 89 | 1009.9 |
| 20260509142836 | 13 | 22 | 3.2 | 4.8 | 0.05 | 0.91 | 0.00 | 88 | 1009.9 |
| 20260509142336 | 13 | 45 | 1.6 | 4.8 | 0.05 | 0.91 | 0.00 | 88 | 1009.9 |
| 20260509141836 | 13 | 45 | 1.6 | 6.4 | 0.05 | 0.91 | 0.00 | 88 | 1009.9 |
| 20260509141335 | 14 | 45 | 1.6 | 6.4 | 0.00 | 0.86 | 0.00 | 87 | 1009.9 |
| 20260509140835 | 14 | 45 | 4.8 | 9.7 | 0.00 | 0.86 | 0.00 | 87 | 1009.9 |
| 20260509140335 | 14 | 45 | 4.8 | 9.7 | 0.00 | 0.86 | 0.00 | 87 | 1009.8 |
| 20260509135834 | 14 | 67 | 4.8 | 12.9 | 0.00 | 0.86 | 0.00 | 87 | 1009.6 |
| 20260509135334 | 15 | 45 | 6.4 | 11.3 | 0.00 | 0.86 | 0.00 | 87 | 1009.6 |
| 20260509134834 | 15 | 45 | 11.3 | 11.3 | 0.00 | 0.86 | 0.00 | 88 | 1009.7 |
| 20260509134333 | 15 | 45 | 11.3 | 12.9 | 0.00 | 0.86 | 0.00 | 88 | 1009.6 |
| 20260509133833 | 14 | 45 | 3.2 | 11.3 | 0.00 | 0.86 | 0.00 | 89 | 1009.6 |
| 20260509133333 | 14 | 22 | 0.0 | 6.4 | 0.00 | 0.86 | 0.00 | 89 | 1009.6 |
| 20260509132833 | 14 | 0 | 0.0 | 6.4 | 0.00 | 0.86 | 0.00 | 89 | 1009.6 |
| 20260509132332 | 14 | 45 | 3.2 | 9.7 | 0.00 | 0.86 | 0.00 | 89 | 1009.5 |
| 20260509131832 | 14 | 45 | 1.6 | 6.4 | 0.00 | 0.86 | 0.00 | 89 | 1009.7 |
| 20260509131332 | 14 | 337 | 0.0 | 9.7 | 0.05 | 0.86 | 0.00 | 89 | 1009.7 |
| 20260509130831 | 14 | 337 | 3.2 | 6.4 | 0.05 | 0.86 | 0.00 | 89 | 1009.7 |
| 20260509130331 | 14 | 337 | 0.0 | 8.0 | 0.05 | 0.86 | 0.00 | 89 | 1009.6 |
| 20260509125831 | 14 | 0 | 3.2 | 9.7 | 0.10 | 0.86 | 0.00 | 90 | 1009.8 |
| 20260509125331 | 14 | 22 | 1.6 | 9.7 | 0.36 | 0.86 | 0.00 | 90 | 1009.8 |
| 20260509124830 | 14 | 22 | 4.8 | 12.9 | 0.36 | 0.86 | 0.00 | 90 | 1009.9 |
| 20260509124330 | 14 | 45 | 1.6 | 4.8 | 0.41 | 0.86 | 0.00 | 90 | 1009.9 |
| 20260509123830 | 14 | 45 | 0.0 | 9.7 | 0.41 | 0.86 | 0.00 | 90 | 1010.0 |
| 20260509123329 | 14 | 45 | 3.2 | 8.0 | 0.46 | 0.86 | 0.00 | 90 | 1010.1 |
| 20260509122829 | 13 | 45 | 3.2 | 8.0 | 0.46 | 0.86 | 0.00 | 90 | 1010.0 |
| 20260509122329 | 14 | 45 | 6.4 | 8.0 | 0.46 | 0.86 | 0.00 | 89 | 1010.2 |
| 20260509121828 | 13 | 0 | 3.2 | 3.2 | 0.46 | 0.86 | 0.00 | 89 | 1010.1 |
| 20260509121328 | 13 | 0 | 3.2 | 4.8 | 0.41 | 0.81 | 0.00 | 89 | 1010.1 |
| 20260509120828 | 13 | 337 | 0.0 | 4.8 | 0.41 | 0.81 | 0.00 | 89 | 1010.3 |
| 20260509120328 | 13 | 337 | 4.8 | 6.4 | 0.36 | 0.76 | 0.00 | 89 | 1010.5 |
| 20260509115827 | 14 | 337 | 1.6 | 9.7 | 0.25 | 0.66 | 0.00 | 89 | 1010.4 |
| 20260509115327 | 14 | 22 | 3.2 | 12.9 | 0.10 | 0.51 | 0.00 | 88 | 1010.6 |
| 20260509114827 | 14 | 22 | 8.0 | 11.3 | 0.05 | 0.46 | 0.00 | 88 | 1010.5 |
| 20260509114326 | 15 | 22 | 4.8 | 11.3 | 0.05 | 0.46 | 0.00 | 88 | 1010.5 |
| 20260509113826 | 15 | 0 | 6.4 | 6.4 | 0.00 | 0.41 | 0.00 | 88 | 1010.5 |
| 20260509113326 | 15 | 45 | 1.6 | 12.9 | 0.05 | 0.41 | 0.00 | 87 | 1010.4 |
| 20260509112826 | 15 | 45 | 6.4 | 9.7 | 0.05 | 0.56 | 0.00 | 88 | 1010.4 |
| 20260509112325 | 15 | 22 | 4.8 | 9.7 | 0.05 | 0.56 | 0.00 | 88 | 1010.4 |
| 20260509111825 | 15 | 22 | 6.4 | 8.0 | 0.05 | 0.56 | 0.00 | 88 | 1010.4 |
| 20260509111325 | 15 | 45 | 1.6 | 8.0 | 0.05 | 0.56 | 0.00 | 88 | 1010.3 |
| 20260509110824 | 15 | 45 | 3.2 | 8.0 | 0.05 | 0.56 | 0.00 | 88 | 1010.3 |
| 20260509110324 | 15 | 22 | 3.2 | 8.0 | 0.05 | 0.56 | 0.00 | 88 | 1010.3 |
| 20260509105824 | 15 | 22 | 3.2 | 6.4 | 0.05 | 0.56 | 0.00 | 89 | 1010.4 |
| 20260509105323 | 15 | 22 | 0.0 | 3.2 | 0.05 | 0.56 | 0.00 | 88 | 1010.4 |
| 20260509104823 | 15 | 45 | 0.0 | 12.9 | 0.10 | 0.56 | 0.00 | 88 | 1010.4 |
| 20260509104323 | 15 | 315 | 12.9 | 12.9 | 0.10 | 0.56 | 0.00 | 88 | 1010.3 |
| 20260509103823 | 15 | 45 | 1.6 | 8.0 | 0.05 | 0.51 | 0.00 | 88 | 1010.4 |
| 20260509103322 | 15 | 45 | 6.4 | 11.3 | 0.05 | 0.51 | 0.00 | 89 | 1010.5 |
| 20260509102822 | 15 | 0 | 0.0 | 4.8 | 0.10 | 0.51 | 0.00 | 90 | 1010.5 |
| 20260509102322 | 15 | 0 | 3.2 | 4.8 | 0.10 | 0.51 | 0.00 | 90 | 1010.6 |
| 20260509101821 | 15 | 22 | 1.6 | 3.2 | 0.10 | 0.51 | 0.00 | 90 | 1010.7 |
| 20260509101321 | 14 | 22 | 3.2 | 6.4 | 0.10 | 0.51 | 0.00 | 90 | 1010.7 |
| 20260509100821 | 14 | 45 | 3.2 | 6.4 | 0.10 | 0.51 | 0.00 | 90 | 1010.8 |
| 20260509100321 | 14 | 45 | 4.8 | 9.7 | 0.10 | 0.51 | 0.00 | 89 | 1010.8 |
| 20260509095820 | 13 | 67 | 0.0 | 9.7 | 0.15 | 0.51 | 0.00 | 89 | 1010.9 |
| 20260509095320 | 13 | 45 | 6.4 | 9.7 | 0.15 | 0.51 | 0.00 | 89 | 1010.9 |
| 20260509094820 | 13 | 45 | 6.4 | 12.9 | 0.10 | 0.46 | 0.00 | 89 | 1010.9 |
| 20260509094319 | 13 | 45 | 6.4 | 6.4 | 0.10 | 0.46 | 0.00 | 89 | 1010.9 |
| 20260509093819 | 13 | 45 | 1.6 | 8.0 | 0.10 | 0.46 | 0.00 | 89 | 1010.9 |
| 20260509093319 | 13 | 67 | 6.4 | 8.0 | 0.10 | 0.46 | 0.00 | 89 | 1010.9 |
| 20260509092818 | 13 | 45 | 3.2 | 6.4 | 0.05 | 0.41 | 0.00 | 89 | 1010.9 |
| 20260509092318 | 13 | 22 | 4.8 | 11.3 | 0.05 | 0.41 | 0.00 | 88 | 1011.0 |
| 20260509091818 | 13 | 45 | 1.6 | 4.8 | 0.05 | 0.41 | 0.00 | 88 | 1011.0 |
| 20260509091318 | 14 | 22 | 0.0 | 9.7 | 0.05 | 0.41 | 0.00 | 87 | 1011.1 |
| 20260509090817 | 14 | 0 | 9.7 | 9.7 | 0.05 | 0.41 | 0.00 | 87 | 1011.1 |
| 20260509090317 | 14 | 0 | 0.0 | 6.4 | 0.05 | 0.41 | 0.00 | 87 | 1011.0 |
| 20260509085817 | 15 | 45 | 3.2 | 8.0 | 0.00 | 0.36 | 0.00 | 87 | 1011.0 |
| 20260509085316 | 15 | 0 | 1.6 | 9.7 | 0.00 | 0.36 | 0.00 | 87 | 1011.1 |
| 20260509084816 | 15 | 337 | 9.7 | 11.3 | 0.00 | 0.36 | 0.00 | 87 | 1011.1 |
| 20260509084316 | 15 | 22 | 3.2 | 6.4 | 0.00 | 0.36 | 0.00 | 88 | 1011.1 |
| 20260509083816 | 14 | 0 | 3.2 | 4.8 | 0.00 | 0.36 | 0.00 | 88 | 1011.1 |
| 20260509083315 | 14 | 45 | 1.6 | 4.8 | 0.00 | 0.36 | 0.00 | 88 | 1011.1 |
| 20260509082815 | 14 | 45 | 1.6 | 8.0 | 0.00 | 0.36 | 0.00 | 88 | 1011.1 |
| 20260509082315 | 14 | 45 | 1.6 | 9.7 | 0.00 | 0.36 | 0.00 | 88 | 1011.1 |
| 20260509081814 | 14 | 67 | 4.8 | 11.3 | 0.00 | 0.36 | 0.00 | 88 | 1011.2 |
| 20260509081314 | 14 | 45 | 6.4 | 6.4 | 0.00 | 0.36 | 0.00 | 88 | 1011.2 |
| 20260509080814 | 14 | 45 | 3.2 | 11.3 | 0.00 | 0.36 | 0.00 | 87 | 1011.2 |
| 20260509080314 | 14 | 45 | 4.8 | 9.7 | 0.00 | 0.36 | 0.00 | 87 | 1011.2 |
| 20260509075813 | 14 | 45 | 3.2 | 6.4 | 0.00 | 0.36 | 0.00 | 86 | 1011.2 |
| 20260509075313 | 14 | 67 | 6.4 | 8.0 | 0.00 | 0.36 | 0.00 | 86 | 1011.3 |
| 20260509074813 | 14 | 67 | 3.2 | 9.7 | 0.00 | 0.36 | 0.00 | 86 | 1011.2 |
| 20260509074312 | 14 | 45 | 4.8 | 12.9 | 0.00 | 0.36 | 0.00 | 86 | 1011.2 |
| 20260509073812 | 14 | 45 | 8.0 | 17.7 | 0.00 | 0.36 | 0.00 | 86 | 1011.2 |
| 20260509073312 | 14 | 45 | 4.8 | 9.7 | 0.00 | 0.36 | 0.00 | 86 | 1011.1 |
| 20260509072811 | 14 | 45 | 3.2 | 8.0 | 0.00 | 0.36 | 0.00 | 86 | 1011.1 |
| 20260509072311 | 14 | 67 | 4.8 | 8.0 | 0.00 | 0.36 | 0.00 | 85 | 1011.1 |
| 20260509071811 | 14 | 67 | 8.0 | 9.7 | 0.00 | 0.36 | 0.00 | 85 | 1011.1 |
| 20260509071311 | 14 | 67 | 4.8 | 8.0 | 0.00 | 0.36 | 0.00 | 85 | 1011.2 |
| 20260509070810 | 14 | 45 | 6.4 | 8.0 | 0.00 | 0.36 | 0.00 | 85 | 1011.2 |
| 20260509070310 | 14 | 45 | 1.6 | 8.0 | 0.00 | 0.36 | 0.00 | 84 | 1011.3 |
| 20260509065810 | 14 | 45 | 1.6 | 4.8 | 0.00 | 0.36 | 0.00 | 84 | 1011.3 |
| 20260509065309 | 14 | 45 | 3.2 | 8.0 | 0.00 | 0.36 | 0.00 | 84 | 1011.3 |
| 20260509064809 | 14 | 90 | 3.2 | 6.4 | 0.00 | 0.36 | 0.00 | 84 | 1011.2 |
| 20260509064309 | 14 | 67 | 0.0 | 3.2 | 0.00 | 0.36 | 0.00 | 84 | 1011.2 |
| 20260509063808 | 14 | 67 | 1.6 | 4.8 | 0.00 | 0.36 | 0.00 | 84 | 1011.2 |
| 20260509063308 | 14 | 67 | 1.6 | 3.2 | 0.00 | 0.36 | 0.00 | 83 | 1011.2 |
| 20260509062808 | 15 | 67 | 0.0 | 3.2 | 0.00 | 0.36 | 0.00 | 83 | 1011.2 |
| 20260509062308 | 15 | 67 | 1.6 | 3.2 | 0.00 | 0.36 | 0.00 | 83 | 1011.1 |
| 20260509061807 | 15 | 67 | 0.0 | 4.8 | 0.00 | 0.36 | 0.00 | 83 | 1011.2 |
| 20260509061307 | 15 | 67 | 0.0 | 3.2 | 0.00 | 0.36 | 0.00 | 83 | 1011.2 |
| 20260509060807 | 15 | 67 | 1.6 | 3.2 | 0.00 | 0.36 | 0.00 | 83 | 1011.2 |
| 20260509060306 | 15 | 67 | 0.0 | 3.2 | 0.00 | 0.36 | 0.00 | 83 | 1011.2 |
| 20260509055806 | 15 | 67 | 0.0 | 0.0 | 0.00 | 0.36 | 0.00 | 84 | 1011.2 |
| 20260509055307 | 15 | 67 | 0.0 | 3.2 | 0.00 | 0.36 | 0.00 | 84 | 1011.2 |
| 20260509054806 | 15 | 67 | 0.0 | 1.6 | 0.00 | 0.36 | 0.00 | 84 | 1011.1 |
| 20260509054305 | 15 | 67 | 1.6 | 3.2 | 0.00 | 0.36 | 0.00 | 84 | 1011.1 |
| 20260509053805 | 15 | 67 | 0.0 | 4.8 | 0.00 | 0.36 | 0.00 | 85 | 1011.1 |
| 20260509053305 | 15 | 67 | 0.0 | 0.0 | 0.00 | 0.36 | 0.00 | 85 | 1011.1 |
| 20260509052804 | 15 | 67 | 0.0 | 0.0 | 0.00 | 0.36 | 0.00 | 85 | 1011.1 |
| 20260509052307 | 15 | 67 | 0.0 | 0.0 | 0.00 | 0.36 | 0.00 | 84 | 1011.1 |
| 20260509051804 | 15 | 67 | 0.0 | 0.0 | 0.00 | 0.36 | 0.00 | 84 | 1011.1 |
| 20260509051304 | 15 | 67 | 0.0 | 0.0 | 0.00 | 0.36 | 0.00 | 84 | 1011.1 |
| 20260509050803 | 15 | 67 | 0.0 | 3.2 | 0.00 | 0.36 | 0.00 | 84 | 1011.1 |
| 20260509050303 | 15 | 67 | 1.6 | 3.2 | 0.00 | 0.36 | 0.00 | 84 | 1011.1 |
| 20260509045803 | 15 | 67 | 0.0 | 0.0 | 0.00 | 0.36 | 0.00 | 84 | 1011.2 |
| 20260509045306 | 15 | 67 | 0.0 | 1.6 | 0.00 | 0.36 | 0.00 | 85 | 1011.2 |
| 20260509044802 | 14 | 67 | 1.6 | 3.2 | 0.00 | 0.36 | 0.00 | 85 | 1011.2 |
| 20260509044302 | 14 | 67 | 0.0 | 1.6 | 0.00 | 0.36 | 0.00 | 85 | 1011.2 |